Hlavní strana
METAR-TAF:

METAR-TAF

Letiště :

Malindi, Keňa

zeměpisná šířka: 03-14S, zeměpisná délka: 040-06E, výška: 20 m

Aktuální stav počasí

Zpráva byla vytvořena před 1 hodinou a 21 minutami, v 06:00 UTC
Jihojihovýchodní vítr 15 kt
Teplota 24°C
Vlhkost vzduchu 83%
Tlak 1018 hPa
Viditelnost 10 km a více
Polojasno ve výšce 1500 ft, Vertikální cumulus.
Oblačno až skoro zataženo ve výšce 8000 ft

METAR: HKML 190600Z 16015KT 9999 SCT015TCU BKN080 24/21 Q1018 RESHRA

Čas: 10:21 (07:21 UTC)


TAF: chybějící

Stav a předpovědi počasí z více než 4 000 letišť (zprávy METAR a TAF).

Červené a žluté tečky na mapě představují dostupné meteorologické stanice.

Když kurzor umístíte na tečku, zobrazí se název stanice.

Pak kliknutím zobrazíte stav a předpověď počasí.

Chcete-li změnit mapu, kliknutím na zelené tlačítko se znaménkem +mapu přiblížíte, kliknutím na zelené tlačítko se znaménkem – mapu oddálíte a kliknutím na zelené šipky přejdete na sousední mapy.


METAR-TAF: